ICEYE-X1

导读 | 豆包AI

ICEYE-X1是芬兰ICEYE公司研发的首颗冰眼系列合成孔径雷达卫星,于2018年1月12日成功发射。它是世界上首颗重量低于100公斤(仅70kg)的微型SAR卫星,开创了小型化雷达遥感卫星的先河。该卫星运行在近极地太阳同步轨道,可提供高分辨率遥感影像,服务于海冰观测、灾害监测、资源探测等领域,为后续ICEYE卫星星座的规模化发展奠定了技术基础。

基本信息
目录编号:
43114
目录名称:
ICEYE-X1
国际标识:
2018-004D
轨道中心:
EARTH
卫星名称:
ICEYE-X1
卫星全名:
--
卫星状态:
已陨落 最后检测时间 2024-02-10
发射日期:
2018-01-12 UTC
国别 :
(FI)
星等 :
--
轨道信息
数据来源 国际轨道数据
星历时间: 2024-02-07T22:36:45+0800
轨道信息已过期786天
半长轴: 6529.644km
偏心率: 0.0010196
轨道倾角: 97.271°
近地点辐角 278.970°
升交点赤经 127.499°
平近点角 81.045°
近地点: 144.851km
远地点: 158.167km
周期: 87.517分钟
每日圈数: 16.453887
详细信息
使用方式:
暂无